Location: Alafon
(8.4500°N, 4.2333°E)
Time: 09:49:10
(UTC+00:00)

A-11 Canister half - Pass Details

Date: 10 August 2021
Orbit: 1515 x 1685 km, 47.2° (Epoch: 21 September)

Event Time Altitude Azimuth Distance (km) Brightness Sun altitude
Rises 19:46:04 0° 344° (NNW) 4,893 12.2 -25.5°
Reaches altitude 10° 19:51:33 10° 7° (N) 3,928 11.3 -26.7°
Maximum altitude 19:56:24 14° 37° (NE) 3,603 10.8 -27.8°
Enters shadow 19:58:35 13° 51° (NE) 3,676 10.7 -28.3°
Drops below altitude 10° 20:01:15 10° 66° (ENE) 3,943 - -28.9°
Sets 20:06:41 0° 89° (E) 4,925 - -30.2°
